カタログに戻る

DELTA 4 R/B

運用中MEO
NORAD 47238·ROCKET BODY·🇺🇸 United States

打ち上げ Dec 11, 2020 から Cape Canaveral Space Force Station

Loading…

次のパス (今後24時間)

TLE

最新Source: Space-Track

元期: Sep 13, 2026, 20:27 UTC

1 47238U 20095B   26256.85228067 -.00000214  00000-0  00000-0 0  9997
2 47238   2.8845 302.0920 0256345   7.8753 352.2342  0.95076352 12049

AllMySatでDELTA 4 R/Bをリアルタイム追跡

Download on the App Store